Location: Unspecified
(0.0000°N, 0.0000°E)
Time: 16:51:03
(UTC+00:00)

Vela 2A - Visible Passes

Search period start: 07 September 2024 00:00
Search period end: 17 September 2024 00:00
Orbit: 50625 x 155866 km, 49.1° (Epoch: 11 September)

Date Brightness Start Highest point End Pass type
(mag) Time Alt. Az. Time Alt. Az. Time Alt. Az.
07 Sep ? 03:27:22 10° ESE 10:20:24 67° NNE 17:34:05 10° NW visible
08 Sep ? 11:45:21 10° NE 17:30:27 42° N 22:53:56 10° NW visible
09 Sep ? 14:29:15 10° ENE 20:10:26 65° N 01:38:06 10° WNW visible
10 Sep ? 17:34:13 10° ESE 22:34:39 41° SSE 15:52:31 10° WNW daylight
12 Sep ? 10:32:36 10° NE 16:23:03 40° N 21:53:32 10° NW visible
13 Sep ? 13:48:48 10° NE 19:28:53 60° N 00:53:06 10° WNW visible
14 Sep ? 16:13:09 10° E 21:55:24 69° SSE 13:10:23 10° WSW daylight
16 Sep ? 09:03:10 10° NE 15:00:01 39° N 20:45:03 10° NW visible
